Year,Month,Day,Hour,Minute,Value (Times are PST for temperature in C)
2015,04,29,10,49,11.80
2015,04,29,10,50,11.80
2015,04,29,10,51,11.80
2015,04,29,10,52,11.90
2015,04,29,10,53,12.00
2015,04,29,10,54,11.90
2015,04,29,10,55,12.00
2015,04,29,10,56,12.00
2015,04,29,10,57,12.00
2015,04,29,10,58,12.00
2015,04,29,10,59,12.00
2015,04,29,11,00,11.90
2015,04,29,11,01,11.80
2015,04,29,11,02,11.80
2015,04,29,11,03,11.80
2015,04,29,11,04,11.80
2015,04,29,11,05,11.80
2015,04,29,11,06,11.80
2015,04,29,11,07,11.80
2015,04,29,11,08,11.80
2015,04,29,11,09,11.70
2015,04,29,11,10,11.70
2015,04,29,11,11,11.70
2015,04,29,11,12,11.70
2015,04,29,11,13,11.70
2015,04,29,11,14,11.70
2015,04,29,11,15,11.70
2015,04,29,11,16,11.60
2015,04,29,11,17,11.60
2015,04,29,11,18,11.60
2015,04,29,11,19,11.60
2015,04,29,11,20,11.60
2015,04,29,11,21,11.60
2015,04,29,11,22,11.60
2015,04,29,11,23,11.60
2015,04,29,11,24,11.60
2015,04,29,11,25,11.60
2015,04,29,11,26,11.60
2015,04,29,11,27,11.70
2015,04,29,11,28,11.70
2015,04,29,11,29,11.80
2015,04,29,11,30,11.80
2015,04,29,11,31,12.00
2015,04,29,11,32,12.10
2015,04,29,11,33,12.30
2015,04,29,11,34,12.30
2015,04,29,11,35,12.40
2015,04,29,11,36,12.40
2015,04,29,11,37,12.50
2015,04,29,11,38,12.50
2015,04,29,11,39,12.60
2015,04,29,11,40,12.60
2015,04,29,11,41,12.60
2015,04,29,11,42,12.60
2015,04,29,11,43,12.60
2015,04,29,11,44,12.60
2015,04,29,11,45,12.70
2015,04,29,11,46,12.70
2015,04,29,11,47,12.70
2015,04,29,11,48,12.70
2015,04,29,11,49,12.70
2015,04,29,11,50,12.70
2015,04,29,11,51,12.80
2015,04,29,11,52,12.80
2015,04,29,11,53,12.70
2015,04,29,11,54,12.90
2015,04,29,11,55,13.00
2015,04,29,11,56,13.00
2015,04,29,11,57,13.00
2015,04,29,11,58,13.00
2015,04,29,11,59,13.10
2015,04,29,12,00,13.10
2015,04,29,12,01,13.10
2015,04,29,12,02,13.20
2015,04,29,12,03,13.20
2015,04,29,12,04,13.20
2015,04,29,12,05,13.20
2015,04,29,12,06,13.20
2015,04,29,12,07,13.20
2015,04,29,12,08,13.20
2015,04,29,12,09,13.30
2015,04,29,12,10,13.20
2015,04,29,12,11,13.20
2015,04,29,12,12,13.20
2015,04,29,12,13,13.20
2015,04,29,12,14,13.10
2015,04,29,12,15,13.10
2015,04,29,12,16,13.10
2015,04,29,12,17,13.10
2015,04,29,12,18,13.00
2015,04,29,12,19,13.00
2015,04,29,12,20,13.00
2015,04,29,12,21,12.90
2015,04,29,12,22,12.90
2015,04,29,12,23,12.80
2015,04,29,12,24,12.90
2015,04,29,12,25,12.90
2015,04,29,12,26,12.90
2015,04,29,12,27,12.90
2015,04,29,12,28,12.80
2015,04,29,12,29,12.70
2015,04,29,12,30,12.60
2015,04,29,12,31,12.50
2015,04,29,12,32,12.50
2015,04,29,12,33,12.50
2015,04,29,12,34,12.50
2015,04,29,12,35,12.30
2015,04,29,12,36,12.20
2015,04,29,12,37,12.20
2015,04,29,12,38,12.10
2015,04,29,12,39,12.10
2015,04,29,12,40,12.10
2015,04,29,12,41,12.00
2015,04,29,12,42,12.00
2015,04,29,12,43,12.00
2015,04,29,12,44,11.90
2015,04,29,12,45,11.80
2015,04,29,12,46,11.80
2015,04,29,12,47,11.80
2015,04,29,12,48,11.90
2015,04,29,12,49,11.90
2015,04,29,12,50,12.00
2015,04,29,12,51,12.10
2015,04,29,12,52,12.20
2015,04,29,12,53,12.30
2015,04,29,12,54,12.40
2015,04,29,12,55,12.50
2015,04,29,12,56,12.50
2015,04,29,12,57,12.50
2015,04,29,12,58,12.70
2015,04,29,12,59,12.80
2015,04,29,13,00,12.80
2015,04,29,13,01,13.00
2015,04,29,13,02,13.10
2015,04,29,13,03,13.20
2015,04,29,13,04,13.20
2015,04,29,13,05,13.30
2015,04,29,13,06,13.30
2015,04,29,13,07,13.30
2015,04,29,13,08,13.40
2015,04,29,13,09,13.50
2015,04,29,13,10,13.60
2015,04,29,13,11,13.80
2015,04,29,13,12,13.80
2015,04,29,13,13,13.90
2015,04,29,13,14,14.00
2015,04,29,13,15,14.00
2015,04,29,13,16,14.00
2015,04,29,13,17,14.10
2015,04,29,13,18,14.20
2015,04,29,13,19,14.20
2015,04,29,13,20,14.20
2015,04,29,13,21,14.20
2015,04,29,13,22,14.20
2015,04,29,13,23,14.20
2015,04,29,13,24,14.20
2015,04,29,13,25,14.20
2015,04,29,13,26,14.20
2015,04,29,13,27,14.30
2015,04,29,13,28,14.30
2015,04,29,13,29,14.30
2015,04,29,13,30,14.20
2015,04,29,13,31,14.20
2015,04,29,13,32,14.20
2015,04,29,13,33,14.20
2015,04,29,13,34,14.20
2015,04,29,13,35,14.20
2015,04,29,13,36,14.10
2015,04,29,13,37,13.90
2015,04,29,13,38,13.80
2015,04,29,13,39,13.70
2015,04,29,13,40,13.80
2015,04,29,13,41,13.90
2015,04,29,13,42,13.90
2015,04,29,13,43,14.10
2015,04,29,13,44,14.10
2015,04,29,13,45,14.10
2015,04,29,13,46,14.00
2015,04,29,13,47,13.90
2015,04,29,13,48,14.00
2015,04,29,13,49,14.10
2015,04,29,13,50,14.20
2015,04,29,13,51,14.20
2015,04,29,13,52,14.40
2015,04,29,13,53,14.40
2015,04,29,13,54,14.40
2015,04,29,13,55,14.40
2015,04,29,13,56,14.40
2015,04,29,13,57,14.30
2015,04,29,13,58,14.20
2015,04,29,13,59,14.20
2015,04,29,14,00,14.20
2015,04,29,14,01,14.20
2015,04,29,14,02,14.20
2015,04,29,14,03,14.20
2015,04,29,14,04,14.20
2015,04,29,14,05,14.20
2015,04,29,14,06,14.20
2015,04,29,14,07,14.00
2015,04,29,14,08,14.00
2015,04,29,14,09,13.90
2015,04,29,14,10,13.80
2015,04,29,14,11,13.80
2015,04,29,14,12,13.80
2015,04,29,14,13,13.70
2015,04,29,14,14,13.60
2015,04,29,14,15,13.50
2015,04,29,14,16,13.40
2015,04,29,14,17,13.30
2015,04,29,14,18,13.30
2015,04,29,14,19,13.30
2015,04,29,14,20,13.30
2015,04,29,14,21,13.30
2015,04,29,14,22,13.30
2015,04,29,14,23,13.20
2015,04,29,14,24,13.10
2015,04,29,14,25,13.20
2015,04,29,14,26,13.10
2015,04,29,14,27,13.00
2015,04,29,14,28,13.00
2015,04,29,14,29,13.00
2015,04,29,14,30,13.10
2015,04,29,14,31,13.20
2015,04,29,14,32,13.20
2015,04,29,14,33,13.30
2015,04,29,14,34,13.40
2015,04,29,14,35,13.50
2015,04,29,14,36,13.60
2015,04,29,14,37,13.70
2015,04,29,14,38,13.70
2015,04,29,14,39,13.70
2015,04,29,14,40,13.80
2015,04,29,14,41,13.90
2015,04,29,14,42,14.00
2015,04,29,14,43,14.00
2015,04,29,14,44,14.00
2015,04,29,14,45,14.10
2015,04,29,14,46,14.10
2015,04,29,14,47,14.10
2015,04,29,14,48,14.00
2015,04,29,14,49,14.00
2015,04,29,14,50,14.00
2015,04,29,14,51,14.10
2015,04,29,14,52,14.10
2015,04,29,14,53,14.20
2015,04,29,14,54,14.20
2015,04,29,14,55,14.40
2015,04,29,14,56,14.50
2015,04,29,14,57,14.50
2015,04,29,14,58,14.60
2015,04,29,14,59,14.60
2015,04,29,15,00,14.80
2015,04,29,15,01,14.80
2015,04,29,15,02,14.70
2015,04,29,15,03,14.60
2015,04,29,15,04,14.60
2015,04,29,15,05,14.60
2015,04,29,15,06,14.60
2015,04,29,15,07,14.70
2015,04,29,15,08,14.80
2015,04,29,15,09,14.80
2015,04,29,15,10,14.80
2015,04,29,15,11,14.80
2015,04,29,15,12,14.80
2015,04,29,15,13,14.80
2015,04,29,15,14,14.80
2015,04,29,15,15,14.80
2015,04,29,15,16,14.70
2015,04,29,15,17,14.70
2015,04,29,15,18,14.70
2015,04,29,15,19,14.70
2015,04,29,15,20,14.70
2015,04,29,15,21,14.60
2015,04,29,15,22,14.60
2015,04,29,15,23,14.70
2015,04,29,15,24,14.70
2015,04,29,15,25,14.70
2015,04,29,15,26,14.60
2015,04,29,15,27,14.60
2015,04,29,15,28,14.70
2015,04,29,15,29,14.60
2015,04,29,15,30,14.60
2015,04,29,15,31,14.50
2015,04,29,15,32,14.50
2015,04,29,15,33,14.50
2015,04,29,15,34,14.30
2015,04,29,15,35,14.20
2015,04,29,15,36,14.20
2015,04,29,15,37,14.10
2015,04,29,15,38,13.90
2015,04,29,15,39,13.80
2015,04,29,15,40,13.70
2015,04,29,15,41,13.70
2015,04,29,15,42,13.60
2015,04,29,15,43,13.60
2015,04,29,15,44,13.50
2015,04,29,15,45,13.50
2015,04,29,15,46,13.50
2015,04,29,15,47,13.40
2015,04,29,15,48,13.50
2015,04,29,15,49,13.50
2015,04,29,15,50,13.50
2015,04,29,15,51,13.50
2015,04,29,15,52,13.40
2015,04,29,15,53,13.40
2015,04,29,15,54,13.40
2015,04,29,15,55,13.30
2015,04,29,15,56,13.30
2015,04,29,15,57,13.30
2015,04,29,15,58,13.30
2015,04,29,15,59,13.30
2015,04,29,16,00,13.30
2015,04,29,16,01,13.20
2015,04,29,16,02,13.30
2015,04,29,16,03,13.30
2015,04,29,16,04,13.20
2015,04,29,16,05,13.20
2015,04,29,16,06,13.20
2015,04,29,16,07,13.20
2015,04,29,16,08,13.30
2015,04,29,16,09,13.20
2015,04,29,16,10,13.20
2015,04,29,16,11,13.20
2015,04,29,16,12,13.20
2015,04,29,16,13,13.20
2015,04,29,16,14,13.10
2015,04,29,16,15,13.10
2015,04,29,16,16,13.10
2015,04,29,16,17,13.10
2015,04,29,16,18,13.10
2015,04,29,16,19,13.10
2015,04,29,16,20,13.10
2015,04,29,16,21,13.00
2015,04,29,16,22,13.00
2015,04,29,16,23,12.90
2015,04,29,16,24,12.90
2015,04,29,16,25,12.90
2015,04,29,16,26,12.90
2015,04,29,16,27,13.00
2015,04,29,16,28,13.00
2015,04,29,16,29,13.00
2015,04,29,16,30,13.10
2015,04,29,16,31,13.10
2015,04,29,16,32,13.20
2015,04,29,16,33,13.20
2015,04,29,16,34,13.30
2015,04,29,16,35,13.30
2015,04,29,16,36,13.30
2015,04,29,16,37,13.20
2015,04,29,16,38,13.20
2015,04,29,16,39,13.20
2015,04,29,16,40,13.20
2015,04,29,16,41,13.20
2015,04,29,16,42,13.20
2015,04,29,16,43,13.20
2015,04,29,16,44,13.20
2015,04,29,16,45,13.20
2015,04,29,16,46,13.20
2015,04,29,16,47,13.20
2015,04,29,16,48,13.30
2015,04,29,16,49,13.30
2015,04,29,16,50,13.40
2015,04,29,16,51,13.50
2015,04,29,16,52,13.50
2015,04,29,16,53,13.50
2015,04,29,16,54,13.50
2015,04,29,16,55,13.50
2015,04,29,16,56,13.50
2015,04,29,16,57,13.40
2015,04,29,16,58,13.40
2015,04,29,16,59,13.40
2015,04,29,17,00,13.40
2015,04,29,17,01,13.40
2015,04,29,17,02,13.40
2015,04,29,17,03,13.40
2015,04,29,17,04,13.40
2015,04,29,17,05,13.40
2015,04,29,17,06,13.50
2015,04,29,17,07,13.50
2015,04,29,17,08,13.50
2015,04,29,17,09,13.50
2015,04,29,17,10,13.50
2015,04,29,17,11,13.50
2015,04,29,17,12,13.50
2015,04,29,17,13,13.50
2015,04,29,17,14,13.50
2015,04,29,17,15,13.40
2015,04,29,17,16,13.40
2015,04,29,17,17,13.40
2015,04,29,17,18,13.50
2015,04,29,17,19,13.50
2015,04,29,17,20,13.50
2015,04,29,17,21,13.50
2015,04,29,17,22,13.50
2015,04,29,17,23,13.50
2015,04,29,17,24,13.50
2015,04,29,17,25,13.50
2015,04,29,17,26,13.50
2015,04,29,17,27,13.50
2015,04,29,17,28,13.50
2015,04,29,17,29,13.40
2015,04,29,17,30,13.30
2015,04,29,17,31,13.30
2015,04,29,17,32,13.30
2015,04,29,17,33,13.20
2015,04,29,17,34,13.20
2015,04,29,17,35,13.20
2015,04,29,17,36,13.20
2015,04,29,17,37,13.20
2015,04,29,17,38,13.20
2015,04,29,17,39,13.10
2015,04,29,17,40,13.10
2015,04,29,17,41,13.00
2015,04,29,17,42,13.00
2015,04,29,17,43,12.90
2015,04,29,17,44,12.90
2015,04,29,17,45,12.80
2015,04,29,17,46,12.80
2015,04,29,17,47,12.80
2015,04,29,17,48,12.80
2015,04,29,17,49,12.70
2015,04,29,17,50,12.70
2015,04,29,17,51,12.80
2015,04,29,17,52,12.70
2015,04,29,17,53,12.70
2015,04,29,17,54,12.80
2015,04,29,17,55,12.80
2015,04,29,17,56,12.90
2015,04,29,17,57,12.90
2015,04,29,17,58,13.00
2015,04,29,17,59,13.00
2015,04,29,18,00,13.10
2015,04,29,18,01,13.10
2015,04,29,18,02,13.10
2015,04,29,18,03,13.20
2015,04,29,18,04,13.20
2015,04,29,18,05,13.20
2015,04,29,18,06,13.20
2015,04,29,18,07,13.10
2015,04,29,18,08,13.00
2015,04,29,18,09,13.00
2015,04,29,18,10,13.00
2015,04,29,18,11,13.00
2015,04,29,18,12,13.00
2015,04,29,18,13,13.00
2015,04,29,18,14,12.90
2015,04,29,18,15,12.90
2015,04,29,18,16,12.80
2015,04,29,18,17,12.90
2015,04,29,18,18,12.90
2015,04,29,18,19,12.90
2015,04,29,18,20,12.90
2015,04,29,18,21,12.90
2015,04,29,18,22,12.90
2015,04,29,18,23,12.90
2015,04,29,18,24,12.90
2015,04,29,18,25,12.90
2015,04,29,18,26,12.90
2015,04,29,18,27,12.80
2015,04,29,18,28,12.80
2015,04,29,18,29,12.70
2015,04,29,18,30,12.70
2015,04,29,18,31,12.70
2015,04,29,18,32,12.60
2015,04,29,18,33,12.60
2015,04,29,18,34,12.50
2015,04,29,18,35,12.50
2015,04,29,18,36,12.50
2015,04,29,18,37,12.40
2015,04,29,18,38,12.40
2015,04,29,18,39,12.40
2015,04,29,18,40,12.40
2015,04,29,18,41,12.40
2015,04,29,18,42,12.40
2015,04,29,18,43,12.40
2015,04,29,18,44,12.40
2015,04,29,18,45,12.40
2015,04,29,18,46,12.40
2015,04,29,18,47,12.40
2015,04,29,18,48,12.40
2015,04,29,18,49,12.40
2015,04,29,18,50,12.40
2015,04,29,18,51,12.40
2015,04,29,18,52,12.50
2015,04,29,18,53,12.50
2015,04,29,18,54,12.50
2015,04,29,18,55,12.50
2015,04,29,18,56,12.60
2015,04,29,18,57,12.60
2015,04,29,18,58,12.60
2015,04,29,18,59,12.60
2015,04,29,19,00,12.70
2015,04,29,19,01,12.70
2015,04,29,19,02,12.70
2015,04,29,19,03,12.70
2015,04,29,19,04,12.70
2015,04,29,19,05,12.80
2015,04,29,19,06,12.80
2015,04,29,19,07,12.80
2015,04,29,19,08,12.80
2015,04,29,19,09,12.80
2015,04,29,19,10,12.80
2015,04,29,19,11,12.80
2015,04,29,19,12,12.80
2015,04,29,19,13,12.80
2015,04,29,19,14,12.80
2015,04,29,19,15,12.80
2015,04,29,19,16,12.80
2015,04,29,19,17,12.80
2015,04,29,19,18,12.80
2015,04,29,19,19,12.80
2015,04,29,19,20,12.80
2015,04,29,19,21,12.70
2015,04,29,19,22,12.70
2015,04,29,19,23,12.60
2015,04,29,19,24,12.60
2015,04,29,19,25,12.60
2015,04,29,19,26,12.50
2015,04,29,19,27,12.50
2015,04,29,19,28,12.50
2015,04,29,19,29,12.50
2015,04,29,19,30,12.50
2015,04,29,19,31,12.50
2015,04,29,19,32,12.50
2015,04,29,19,33,12.50
2015,04,29,19,34,12.40
2015,04,29,19,35,12.40
2015,04,29,19,36,12.40
2015,04,29,19,37,12.40
2015,04,29,19,38,12.40
2015,04,29,19,39,12.30
2015,04,29,19,40,12.30
2015,04,29,19,41,12.30
2015,04,29,19,42,12.30
2015,04,29,19,43,12.30
2015,04,29,19,44,12.30
2015,04,29,19,45,12.30
2015,04,29,19,46,12.30
2015,04,29,19,47,12.30
2015,04,29,19,48,12.30
2015,04,29,19,49,12.20
2015,04,29,19,50,12.20
2015,04,29,19,51,12.20
2015,04,29,19,52,12.20
2015,04,29,19,53,12.20
2015,04,29,19,54,12.20
2015,04,29,19,55,12.10
2015,04,29,19,56,12.10
2015,04,29,19,57,12.10
2015,04,29,19,58,12.00
2015,04,29,19,59,12.00
2015,04,29,20,00,12.00
2015,04,29,20,01,12.00
2015,04,29,20,02,11.90
2015,04,29,20,03,11.90
2015,04,29,20,04,11.90
2015,04,29,20,05,11.90
2015,04,29,20,06,11.90
2015,04,29,20,07,11.80
2015,04,29,20,08,11.80
2015,04,29,20,09,11.80
2015,04,29,20,10,11.80
2015,04,29,20,11,11.80
2015,04,29,20,12,11.80
2015,04,29,20,13,11.80
2015,04,29,20,14,11.80
2015,04,29,20,15,11.80
2015,04,29,20,16,11.70
2015,04,29,20,17,11.70
2015,04,29,20,18,11.70
2015,04,29,20,19,11.70
2015,04,29,20,20,11.70
2015,04,29,20,21,11.70
2015,04,29,20,22,11.70
2015,04,29,20,23,11.70
2015,04,29,20,24,11.70
2015,04,29,20,25,11.70
2015,04,29,20,26,11.70
2015,04,29,20,27,11.70
2015,04,29,20,28,11.70
2015,04,29,20,29,11.70
2015,04,29,20,30,11.70
2015,04,29,20,31,11.70
2015,04,29,20,32,11.70
2015,04,29,20,33,11.70
2015,04,29,20,34,11.70
2015,04,29,20,35,11.70
